Time,TemperatureF,DewpointF,PressureIn,WindDirection,WindDirectionDegrees,WindSpeedMPH,WindSpeedGustMPH,Humidity,HourlyPrecipIn,Conditions,Clouds,dailyrainin,SoftwareType,DateUTC
2013-06-27 00:01:00,80.0,80.0,30.02,North,360,1.0,-999.0,100,-99.99,,,-99.99,,2013-06-27 04:01:00,
2013-06-27 00:11:00,80.0,80.0,30.02,North,360,1.0,-999.0,100,-99.99,,,-99.99,,2013-06-27 04:11:00,
2013-06-27 00:33:00,80.0,80.0,30.02,North,5,1.0,-999.0,100,-99.99,,,-99.99,,2013-06-27 04:33:00,
2013-06-27 00:42:00,81.0,81.0,30.01,NNE,24,2.0,-999.0,100,-99.99,,,-99.99,,2013-06-27 04:42:00,
2013-06-27 00:53:00,81.0,81.0,30.01,NNE,24,2.0,-999.0,100,-99.99,,,-99.99,,2013-06-27 04:53:00,
2013-06-27 01:02:00,81.0,81.0,30.00,NE,36,3.0,-999.0,100,-99.99,,,-99.99,,2013-06-27 05:02:00,
2013-06-27 01:12:00,81.0,81.0,30.00,NE,36,3.0,-999.0,100,-99.99,,,-99.99,,2013-06-27 05:12:00,
2013-06-27 01:22:00,81.0,81.0,30.00,NNE,33,4.0,-999.0,100,-99.99,,,-99.99,,2013-06-27 05:22:00,
2013-06-27 01:32:00,81.0,81.0,30.00,NNE,33,4.0,-999.0,100,-99.99,,,-99.99,,2013-06-27 05:32:00,
2013-06-27 01:42:00,80.0,80.0,29.99,North,5,4.0,-999.0,100,-99.99,,,-99.99,,2013-06-27 05:42:00,
2013-06-27 01:53:00,80.0,80.0,29.99,North,5,4.0,-999.0,100,-99.99,,,-99.99,,2013-06-27 05:53:00,
2013-06-27 02:02:00,80.0,80.0,29.98,NNW,331,4.0,-999.0,100,-99.99,,,-99.99,,2013-06-27 06:02:00,
2013-06-27 02:12:00,80.0,80.0,29.98,North,355,4.0,-999.0,100,-99.99,,,-99.99,,2013-06-27 06:12:00,
2013-06-27 02:34:00,80.0,80.0,29.98,NE,34,4.0,-999.0,100,-99.99,,,-99.99,,2013-06-27 06:34:00,
2013-06-27 02:43:00,80.0,80.0,29.98,NE,44,4.0,-999.0,100,-99.99,,,-99.99,,2013-06-27 06:43:00,
2013-06-27 02:53:00,80.0,80.0,29.98,NE,44,4.0,-999.0,100,-99.99,,,-99.99,,2013-06-27 06:53:00,
2013-06-27 03:02:00,80.0,80.0,29.98,NNW,346,3.0,-999.0,100,-99.99,,,-99.99,,2013-06-27 07:02:00,
2013-06-27 03:12:00,80.0,80.0,29.98,West,280,4.0,-999.0,100,-99.99,,,-99.99,,2013-06-27 07:12:00,
2013-06-27 03:22:00,80.0,80.0,29.98,West,280,4.0,-999.0,100,-99.99,,,-99.99,,2013-06-27 07:22:00,
2013-06-27 03:34:00,80.0,80.0,29.98,NNE,19,3.0,-999.0,100,-99.99,,,-99.99,,2013-06-27 07:34:00,
2013-06-27 03:42:00,80.0,80.0,29.98,North,355,3.0,-999.0,100,-99.99,,,-99.99,,2013-06-27 07:42:00,
2013-06-27 03:52:00,80.0,80.0,29.98,North,355,3.0,-999.0,100,-99.99,,,-99.99,,2013-06-27 07:52:00,
2013-06-27 04:01:00,80.0,80.0,29.98,NNE,23,3.0,-999.0,100,-99.99,,,-99.99,,2013-06-27 08:01:00,
2013-06-27 04:22:00,80.0,80.0,29.98,North,9,2.0,-999.0,100,-99.99,,,-99.99,,2013-06-27 08:22:00,
2013-06-27 04:34:00,80.0,80.0,29.97,North,350,3.0,-999.0,100,-99.99,,,-99.99,,2013-06-27 08:34:00,
2013-06-27 04:52:00,80.0,80.0,29.97,NNE,14,3.0,-999.0,100,-99.99,,,-99.99,,2013-06-27 08:52:00,
2013-06-27 05:02:00,80.0,80.0,29.97,NE,46,3.0,-999.0,100,-99.99,,,-99.99,,2013-06-27 09:02:00,
2013-06-27 05:22:00,80.0,80.0,29.96,ENE,57,3.0,-999.0,100,-99.99,,,-99.99,,2013-06-27 09:22:00,
2013-06-27 05:34:00,80.0,80.0,29.96,NE,34,3.0,-999.0,100,-99.99,,,-99.99,,2013-06-27 09:34:00,
2013-06-27 05:43:00,80.0,80.0,29.96,NNE,31,3.0,-999.0,100,-99.99,,,-99.99,,2013-06-27 09:43:00,
2013-06-27 05:53:00,80.0,80.0,29.96,NNE,31,3.0,-999.0,100,-99.99,,,-99.99,,2013-06-27 09:53:00,
2013-06-27 06:01:00,80.0,80.0,29.96,North,5,3.0,-999.0,100,-99.99,,,-99.99,,2013-06-27 10:01:00,
2013-06-27 06:11:00,80.0,80.0,29.96,North,5,3.0,-999.0,100,-99.99,,,-99.99,,2013-06-27 10:11:00,
2013-06-27 06:22:00,80.0,80.0,29.96,NNE,33,2.0,-999.0,100,-99.99,,,-99.99,,2013-06-27 10:22:00,
2013-06-27 06:32:00,80.0,80.0,29.96,North,9,3.0,-999.0,100,-99.99,,,-99.99,,2013-06-27 10:32:00,
2013-06-27 06:44:00,80.0,80.0,29.96,NNE,18,3.0,-999.0,100,-99.99,,,-99.99,,2013-06-27 10:44:00,
2013-06-27 06:54:00,80.0,80.0,29.96,NNE,18,3.0,-999.0,100,-99.99,,,-99.99,,2013-06-27 10:54:00,
2013-06-27 07:02:00,80.0,80.0,29.96,NNW,348,3.0,-999.0,100,-99.99,,,-99.99,,2013-06-27 11:02:00,
2013-06-27 07:22:00,80.0,80.0,29.96,NE,48,2.0,-999.0,100,-99.99,,,-99.99,,2013-06-27 11:22:00,
2013-06-27 07:43:00,80.0,80.0,29.96,ENE,57,4.0,-999.0,100,-99.99,,,-99.99,,2013-06-27 11:43:00,
2013-06-27 07:52:00,80.0,80.0,29.96,ENE,57,4.0,-999.0,100,-99.99,,,-99.99,,2013-06-27 11:52:00,
2013-06-27 08:02:00,81.0,81.0,29.97,NE,44,4.0,-999.0,100,-99.99,,,-99.99,,2013-06-27 12:02:00,
2013-06-27 08:22:00,81.0,81.0,29.96,NNE,31,4.0,-999.0,100,-99.99,,,-99.99,,2013-06-27 12:22:00,
2013-06-27 08:34:00,81.0,81.0,29.96,NNE,13,5.0,-999.0,100,-99.99,,,-99.99,,2013-06-27 12:34:00,
2013-06-27 08:42:00,81.0,81.0,29.96,NE,34,4.0,-999.0,100,-99.99,,,-99.99,,2013-06-27 12:42:00,
2013-06-27 09:01:00,82.0,82.0,29.96,NE,35,4.0,-999.0,100,-99.99,,,-99.99,,2013-06-27 13:01:00,
2013-06-27 09:11:00,82.0,82.0,29.97,NNW,348,3.0,-999.0,100,-99.99,,,-99.99,,2013-06-27 13:11:00,
2013-06-27 09:22:00,82.0,82.0,29.97,NNW,348,3.0,-999.0,100,-99.99,,,-99.99,,2013-06-27 13:22:00,
2013-06-27 09:34:00,83.0,83.0,29.96,NE,46,2.0,-999.0,100,-99.99,,,-99.99,,2013-06-27 13:34:00,
2013-06-27 09:52:00,83.0,83.0,29.96,NE,44,2.0,-999.0,100,-99.99,,,-99.99,,2013-06-27 13:52:00,
2013-06-27 10:02:00,83.0,83.0,29.96,NE,44,3.0,-999.0,100,-99.99,,,-99.99,,2013-06-27 14:02:00,
2013-06-27 15:23:00,84.0,84.0,29.89,North,355,2.0,-999.0,100,-99.99,,,-99.99,,2013-06-27 19:23:00,
2013-06-27 15:34:00,84.0,84.0,29.90,NNW,341,1.0,-999.0,100,-99.99,,,-99.99,,2013-06-27 19:34:00,
2013-06-27 16:46:00,84.0,84.0,29.88,North,5,4.0,-999.0,100,-99.99,,,-99.99,,2013-06-27 20:46:00,
2013-06-27 16:54:00,84.0,84.0,29.88,North,5,4.0,-999.0,100,-99.99,,,-99.99,,2013-06-27 20:54:00,
2013-06-27 17:06:00,85.0,85.0,29.87,NE,42,4.0,-999.0,100,-99.99,,,-99.99,,2013-06-27 21:06:00,
2013-06-27 17:36:00,85.0,85.0,29.85,NNE,23,4.0,-999.0,100,-99.99,,,-99.99,,2013-06-27 21:36:00,
2013-06-27 18:06:00,84.0,84.0,29.84,North,355,4.0,-999.0,100,-99.99,,,-99.99,,2013-06-27 22:06:00,
2013-06-27 18:16:00,84.0,84.0,29.83,North,360,5.0,-999.0,100,-99.99,,,-99.99,,2013-06-27 22:16:00,
2013-06-27 18:25:00,84.0,84.0,29.83,North,360,5.0,-999.0,100,-99.99,,,-99.99,,2013-06-27 22:25:00,
2013-06-27 18:35:00,84.0,84.0,29.83,North,351,6.0,-999.0,100,-99.99,,,-99.99,,2013-06-27 22:35:00,
2013-06-27 18:57:00,83.0,83.0,29.83,North,355,5.0,-999.0,100,-99.99,,,-99.99,,2013-06-27 22:57:00,
2013-06-27 19:07:00,83.0,83.0,29.83,NW,325,5.0,-999.0,100,-99.99,,,-99.99,,2013-06-27 23:07:00,
2013-06-27 19:25:00,83.0,83.0,29.83,North,360,6.0,-999.0,100,-99.99,,,-99.99,,2013-06-27 23:25:00,
2013-06-27 19:36:00,83.0,83.0,29.83,North,360,6.0,-999.0,100,-99.99,,,-99.99,,2013-06-27 23:36:00,
2013-06-27 19:45:00,83.0,83.0,29.84,North,9,6.0,-999.0,100,-99.99,,,-99.99,,2013-06-27 23:45:00,
2013-06-27 19:59:00,83.0,83.0,29.84,North,9,6.0,-999.0,100,-99.99,,,-99.99,,2013-06-27 23:59:00,
2013-06-27 20:07:00,83.0,83.0,29.83,NNE,14,6.0,-999.0,100,-99.99,,,-99.99,,2013-06-28 00:07:00,
2013-06-27 20:15:00,83.0,83.0,29.83,NNE,14,6.0,-999.0,100,-99.99,,,-99.99,,2013-06-28 00:15:00,
2013-06-27 20:45:00,83.0,83.0,29.84,ENE,57,4.0,-999.0,100,-99.99,,,-99.99,,2013-06-28 00:45:00,
2013-06-27 20:56:00,83.0,83.0,29.83,NE,45,5.0,-999.0,100,-99.99,,,-99.99,,2013-06-28 00:56:00,
2013-06-27 21:09:00,83.0,83.0,29.84,North,355,5.0,-999.0,100,-99.99,,,-99.99,,2013-06-28 01:09:00,
2013-06-27 21:14:00,83.0,83.0,29.84,North,355,5.0,-999.0,100,-99.99,,,-99.99,,2013-06-28 01:14:00,
2013-06-27 21:46:00,81.0,81.0,29.85,NNW,340,4.0,-999.0,100,-99.99,,,-99.99,,2013-06-28 01:46:00,
2013-06-27 22:18:00,83.0,83.0,29.86,NE,40,4.0,-999.0,100,-99.99,,,-99.99,,2013-06-28 02:18:00,
2013-06-27 23:28:00,82.0,82.0,29.85,NNE,24,5.0,-999.0,100,-99.99,,,-99.99,,2013-06-28 03:28:00,
2013-06-27 23:38:00,82.0,82.0,29.83,NNE,28,5.0,-999.0,100,-99.99,,,-99.99,,2013-06-28 03:38:00,
2013-06-27 23:45:00,82.0,82.0,29.83,NNE,28,5.0,-999.0,100,-99.99,,,-99.99,,2013-06-28 03:45:00,
2013-06-27 23:57:00,82.0,82.0,29.83,North,360,5.0,-999.0,100,-99.99,,,-99.99,,2013-06-28 03:57:00,